Temperature
16 17 17 17 14 11 13 14 15 15 15 16 16 16 14 14 15 14 14 14 14 14 14 14 14 14 14 15 15 15 15 15 15 15 16 15 15 15 15 15 15 15 15 15 15 15 15 15 15
16 16 17 16 12 12 13 13 14 15 15 16 16 15 14 13 13 13 13 13 14 14 14 14 14 14 14 14 14 15 15 15 15 15 15 15 15 15 15 15 15 15 15 15 15 15 15 15 15
16 16 16 11 11 12 14 14 14 14 15 15 14 14 13 12 13 13 13 13 14 14 14 14 14 14 14 14 14 14 14 15 15 15 15 15 15 15 15 15 15 15 15 15 15 15 15 15 15
16 16 14 11 12 12 13 13 13 14 15 14 13 12 12 12 12 12 13 13 13 13 13 13 13 14 14 14 14 14 14 14 14 15 15 15 15 15 15 14 14 15 15 15 15 14 14 14 14
15 15 11 10 11 12 12 13 13 13 13 13 13 11 11 11 12 12 13 13 13 13 13 13 13 13 13 14 14 14 14 14 14 14 14 14 14 14 14 14 14 14 14 14 14 14 14 14 14
14 11 10 10 11 12 11 12 13 11 12 12 12 10 10 11 11 12 12 12 12 13 13 13 13 13 13 13 13 13 13 13 14 14 14 14 14 14 14 14 14 14 14 14 14 14 14 14 14
12 9 10 10 11 11 11 12 11 11 10 11 12 10 10 11 11 11 11 12 12 12 12 12 12 12 13 13 13 13 13 13 13 13 13 13 13 14 14 14 14 14 14 14 14 14 14 14 14
13 8 10 9 10 11 11 11 11 11 10 11 11 10 9 10 10 11 11 11 11 11 12 12 12 12 12 12 12 13 13 13 13 13 13 13 13 13 13 13 13 13 14 14 14 14 14 14 13
12 8 9 9 10 10 10 10 10 11 10 10 10 10 10 10 10 10 11 11 11 11 11 11 11 11 11 12 12 12 12 12 13 13 13 13 13 13 13 13 13 13 13 13 13 13 13 13 13
10 7 9 9 9 9 9 9 9 9 9 9 9 9 10 10 10 10 10 10 10 10 10 10 11 11 11 11 11 12 12 12 12 12 12 12 12 12 12 13 13 13 13 13 13 13 13 13 13
8 7 8 8 9 9 8 8 9 8 7 8 8 9 9 9 9 9 9 9 9 10 10 10 10 10 10 10 11 11 11 11 11 12 12 12 12 12 12 12 12 12 12 13 12 12 12 12 12
7 7 8 8 8 8 8 8 8 8 8 9 9 9 8 8 8 8 9 8 9 9 9 9 9 9 10 10 10 10 11 11 11 11 11 11 11 11 11 12 12 12 12 12 12 12 12 12 12
7 7 7 7 8 8 7 7 7 7 8 8 8 8 8 8 8 8 8 8 8 8 8 8 8 9 9 9 9 10 10 10 10 10 10 11 11 11 11 11 11 12 12 12 12 12 12 12 12
7 7 7 7 7 7 6 6 6 7 7 7 7 7 7 7 7 7 7 7 7 8 8 8 8 8 8 8 9 9 9 9 10 10 10 10 10 10 11 11 11 11 11 11 12 11 11 11 11
7 6 6 6 6 6 6 5 5 7 7 7 7 7 7 7 7 7 7 7 7 7 7 7 7 7 8 8 8 8 8 9 9 9 9 10 10 10 10 10 10 11 11 11 11 11 11 11 11
6 5 5 6 6 6 6 5 6 7 6 6 6 6 6 6 6 6 6 6 6 6 7 7 7 7 7 7 7 8 8 8 8 9 9 9 9 9 10 10 10 10 10 10 10 11 11 10 10
4 4 5 5 5 5 5 4 5 6 6 5 6 6 6 6 6 6 6 6 6 6 6 6 6 6 6 7 7 7 7 8 8 8 9 9 9 9 9 9 10 10 10 10 10 10 10 10 10
4 4 4 5 5 4 4 3 4 5 5 5 5 5 5 5 5 5 5 5 5 5 6 6 6 6 6 6 6 7 7 7 8 8 8 8 8 8 9 9 9 9 9 9 10 10 10 10 10
4 4 4 4 4 4 3 3 4 4 4 4 4 4 4 5 5 5 5 5 5 5 5 5 5 5 5 6 6 6 7 7 7 7 8 8 8 8 8 8 9 9 9 9 9 9 9 9 9
4 4 3 3 4 4 3 2 3 3 3 4 4 4 4 4 4 5 5 5 5 5 5 5 5 5 5 5 5 5 6 6 7 7 7 7 7 8 8 8 8 8 8 9 9 9 9 9 9
3 3 3 3 2 3 2 2 3 3 3 3 4 4 4 4 4 4 4 4 4 4 4 4 4 4 4 5 5 5 5 6 6 6 7 7 7 7 7 7 8 8 8 8 8 8 8 8 8
3 3 3 2 2 1 2 2 2 2 2 2 2 2 3 3 3 4 4 4 4 4 4 4 4 4 4 4 4 4 5 5 5 6 6 6 7 7 7 7 7 7 7 8 8 8 8 8 8
2 2 2 2 1 0 1 1 2 1 2 1 1 1 2 2 3 3 3 3 3 3 3 3 3 3 3 4 4 4 4 5 5 5 5 6 6 6 7 7 7 7 7 7 7 8 8 8 8
1 1 1 -0 -0 1 1 1 1 1 1 1 1 1 1 2 2 2 2 2 2 3 3 3 3 3 3 3 3 4 4 4 4 5 5 5 5 6 6 6 6 6 6 7 7 7 7 7 7
0 0 0 1 0 1 1 1 1 0 0 0 0 1 1 1 1 2 2 2 2 2 2 2 2 2 3 3 3 3 3 4 4 4 4 4 5 5 5 6 6 6 6 6 6 7 7 7 7
-0 -0 1 1 1 1 0 0 0 -0 -0 0 1 1 1 1 1 1 1 1 1 1 1 2 2 2 2 2 2 3 3 3 3 3 4 4 4 4 5 5 5 5 5 5 6 6 6 6 6
-0 -1 -1 -1 -1 -1 -0 -1 -1 -0 -1 -1 -1 -0 -0 0 0 1 1 1 1 1 1 1 1 2 2 2 2 2 2 3 3 3 3 3 3 3 4 4 4 5 5 5 5 5 6 6 6
-1 -1 -2 -2 -1 -0 -1 -1 -1 -1 -1 -1 -1 -1 -0 -0 -0 0 0 0 0 1 1 1 1 1 1 1 1 2 2 2 2 3 3 3 3 3 3 4 4 4 4 4 4 5 5 5 5
-2 -2 -2 -2 -2 -1 -1 -0 -1 -2 -2 -2 -2 -1 -1 -1 -1 -0 -0 0 -0 0 0 0 0 0 1 1 1 1 1 2 2 2 2 3 3 3 3 3 3 3 4 4 4 4 4 5 5
-2 -3 -3 -2 -2 -3 -2 -1 -1 -2 -2 -2 -1 -1 -1 -1 -1 -1 -1 -1 -0 -0 -0 -0 -0 -0 -0 0 0 1 1 1 2 2 2 2 2 2 2 2 3 3 3 3 4 4 4 4 4
Wind_Speed
17 13 2 4 6 5 1 3 1 1 1 1 2 5 6 4 3 4 1 2 3 3 3 3 4 5 6 8 9 10 10 10 10 10 11 11 11 11 11 11 12 12 13 14 14 14 15 16 16
10 4 5 5 5 2 3 3 1 1 1 1 4 4 5 3 3 4 2 2 3 4 4 4 5 6 7 8 8 9 10 9 9 10 10 10 11 11 10 11 11 12 13 13 13 13 14 14 15
7 2 5 5 4 6 5 2 3 1 2 2 4 4 3 2 2 1 2 1 4 5 5 4 5 6 7 8 8 8 9 9 9 9 9 9 10 10 10 10 11 12 12 12 13 13 13 14 14
3 5 5 4 3 3 4 2 1 0 3 4 3 4 3 3 1 1 1 4 6 4 5 5 5 6 6 7 7 8 8 9 9 8 8 9 9 9 9 10 10 11 11 12 12 13 13 14 13
4 5 5 1 3 2 2 2 1 2 2 3 3 3 1 4 3 3 4 5 5 5 5 6 6 6 6 6 6 7 7 8 8 8 8 8 8 8 9 9 9 10 11 11 11 12 12 12 13
4 5 4 4 5 2 2 2 2 2 1 2 3 3 2 2 4 4 4 5 5 5 6 6 6 6 6 6 6 6 6 6 7 7 7 8 8 8 8 8 9 9 10 11 11 11 11 12 12
4 4 4 5 3 2 2 2 1 0 1 1 1 3 1 2 2 3 5 5 6 6 6 6 6 6 6 6 6 6 6 6 6 5 6 6 7 8 8 8 9 9 10 10 10 11 11 11 12
4 4 2 2 4 3 2 0 0 0 1 1 1 4 3 3 1 4 5 5 6 7 6 6 5 5 6 6 6 5 6 5 5 5 5 6 6 7 7 8 8 8 9 10 10 11 11 11 11
4 4 3 3 4 3 1 1 2 1 1 1 1 1 2 1 3 5 5 5 5 6 6 6 7 6 5 4 5 4 5 6 5 5 5 5 5 5 6 7 8 8 8 9 9 10 10 10 10
4 3 4 2 2 2 1 1 1 2 1 1 1 2 2 3 4 4 4 3 3 3 4 5 6 6 5 3 4 3 3 4 5 4 4 4 4 4 4 6 7 8 8 8 8 9 9 9 8
3 4 2 1 1 0 1 3 2 2 3 4 4 2 2 3 3 2 2 1 1 0 2 4 5 6 5 4 3 2 2 3 4 4 4 3 4 3 4 4 5 6 7 6 7 7 7 7 7
2 0 1 1 1 1 2 2 2 4 6 4 4 5 4 3 3 2 2 0 0 1 1 2 5 4 5 4 3 2 2 2 2 2 3 3 3 2 2 3 3 4 5 5 6 5 6 7 7
1 2 2 1 1 2 2 3 3 5 6 3 2 3 4 4 3 3 3 2 0 1 0 1 3 4 4 5 3 3 2 1 1 2 2 3 2 1 2 2 3 4 5 5 5 5 6 6 6
1 1 2 3 3 3 3 5 3 8 4 3 3 4 4 4 4 2 1 1 1 1 1 0 1 3 3 3 3 3 2 1 1 2 2 3 2 2 2 2 2 3 4 5 5 5 5 5 5
1 2 4 3 3 2 1 5 6 7 3 4 4 4 4 3 2 3 3 2 2 2 1 0 1 3 3 3 3 3 2 1 1 1 2 3 3 2 2 2 2 3 4 5 5 5 5 4 4
2 2 3 4 2 2 2 8 7 4 4 5 4 4 4 3 3 3 3 3 2 2 1 1 1 2 3 3 3 4 3 2 2 1 2 3 3 3 2 2 2 4 5 4 4 4 5 4 4
1 2 5 5 2 1 4 8 8 3 4 6 6 5 4 3 3 3 3 3 3 3 3 1 0 1 2 3 3 3 3 2 2 1 1 2 3 4 3 2 2 4 4 4 4 3 5 5 5
4 4 5 6 3 2 5 9 10 6 5 7 6 6 4 4 5 4 3 2 3 3 2 2 1 1 2 2 2 2 2 2 2 1 2 2 3 4 3 2 3 4 3 3 4 4 4 5 5
3 4 7 7 4 4 8 11 12 8 6 7 7 6 5 5 4 3 3 2 2 2 2 2 1 2 1 1 1 2 2 2 2 2 2 3 3 4 4 2 3 3 3 4 4 4 5 5 5
2 4 7 7 5 4 7 11 10 7 7 7 6 6 6 4 3 2 2 3 3 3 3 3 2 2 2 2 1 2 2 2 2 2 2 2 2 3 4 3 3 3 3 4 4 5 4 4 5
3 4 5 6 8 5 5 7 5 3 2 1 2 3 3 3 4 3 3 4 3 4 4 3 3 3 2 2 1 1 1 1 1 2 2 3 3 3 3 4 3 4 4 5 5 6 5 5 4
4 3 4 5 3 5 1 5 6 3 2 3 3 2 1 1 3 3 3 2 2 3 3 4 3 3 3 2 2 2 2 2 3 3 2 3 3 2 3 3 4 4 4 5 5 5 4 6 6
3 3 4 3 3 5 3 4 7 2 3 4 3 3 1 1 2 2 1 2 2 2 2 3 3 4 3 3 3 2 2 2 2 2 2 3 3 3 2 3 4 3 4 5 5 5 5 5 6
2 2 2 1 1 4 4 5 6 2 4 4 3 4 2 2 0 0 1 0 1 2 2 2 3 4 3 3 3 3 3 3 2 2 3 2 2 3 3 3 4 4 4 5 5 6 6 6 5
3 3 4 4 2 6 2 3 6 4 3 3 3 4 2 2 1 1 2 2 2 3 3 3 3 4 4 3 3 4 4 4 4 4 3 3 3 3 4 3 3 4 4 5 5 5 6 6 7
1 4 4 4 5 5 2 5 5 3 3 3 2 2 3 3 3 3 2 3 3 4 3 3 4 4 4 4 4 4 4 4 3 4 4 4 4 4 4 4 4 4 5 5 5 4 5 5 6
2 2 3 3 1 4 5 5 5 2 4 5 4 4 4 4 4 4 3 3 3 4 4 4 4 4 4 4 5 5 4 4 4 4 4 4 4 4 4 4 4 4 4 5 6 5 6 6 6
1 3 3 3 2 5 6 4 4 4 4 5 5 5 5 5 6 6 5 4 4 4 4 4 4 4 4 4 5 5 4 4 4 4 5 4 5 4 5 5 4 4 5 6 6 6 6 7 6
1 1 2 2 3 3 4 6 3 4 3 3 5 5 5 5 5 6 6 5 4 4 4 4 4 4 4 4 5 4 4 5 4 4 5 5 4 4 5 5 5 5 5 6 6 7 7 8 7
3 4 4 3 4 4 3 6 3 2 2 2 4 5 5 5 5 6 7 6 5 5 5 4 5 4 4 5 4 4 4 5 5 5 5 4 5 5 5 5 5 6 6 6 7 8 8 8 9
Wind_Direction
332 330 21 55 59 58 208 262 235 24 14 326 76 96 107 103 116 146 218 92 71 85 98 108 102 96 97 100 109 109 107 107 107 106 105 103 100 97 95 94 97 99 99 99 96 94 95 94 92
330 341 48 61 96 134 254 260 218 239 217 72 52 75 79 72 54 91 41 355 81 91 97 107 104 98 96 99 109 116 113 112 110 108 108 108 106 102 98 96 98 100 99 100 99 98 97 96 94
332 34 75 79 125 178 199 224 198 237 15 56 49 46 83 87 46 77 285 56 85 77 82 92 102 103 96 96 98 115 120 116 114 112 111 111 110 107 102 100 100 103 101 102 101 101 100 98 96
39 46 57 82 183 217 194 222 233 64 22 32 81 57 48 26 1 305 14 79 90 75 78 87 90 101 98 96 98 104 117 121 119 117 117 116 114 111 108 106 105 107 107 107 105 103 102 100 97
57 75 77 91 225 237 249 283 26 46 21 17 82 102 59 347 6 39 63 73 89 72 66 87 82 85 98 96 97 101 107 114 123 124 123 123 121 117 113 112 113 113 115 112 111 108 104 102 100
55 72 107 197 224 235 291 336 36 25 345 3 67 119 169 347 29 35 59 68 74 75 61 75 80 77 83 98 102 102 99 106 113 123 127 126 125 124 123 120 120 120 121 117 117 115 109 105 102
101 105 157 182 204 239 271 333 63 55 346 290 127 131 197 319 6 47 50 62 60 63 61 58 71 75 77 82 95 94 97 96 101 113 112 123 129 127 131 131 129 125 126 124 123 121 116 108 103
116 109 133 183 192 232 278 345 74 91 254 312 101 145 213 261 2 53 47 51 52 45 41 40 50 64 65 71 81 89 92 92 90 90 100 107 120 129 134 137 136 132 132 130 127 126 121 115 107
82 88 183 200 186 216 306 26 338 352 101 9 31 181 209 160 70 64 46 37 37 37 30 28 28 38 54 64 70 76 90 86 84 83 87 104 107 117 133 140 140 140 138 136 133 130 125 119 109
81 152 206 219 169 176 308 334 310 356 331 283 339 4 78 99 91 80 63 55 45 24 23 22 26 24 31 47 63 59 87 88 82 81 78 88 105 117 125 139 144 145 143 139 137 133 128 121 111
106 170 187 315 43 95 301 307 302 194 251 225 208 202 140 108 102 106 103 121 139 78 33 19 14 21 20 19 34 34 55 80 80 81 75 84 94 111 119 125 137 144 142 136 136 130 125 122 116
107 266 202 268 331 310 259 270 296 235 235 226 196 168 158 153 164 174 198 197 108 99 22 20 14 14 15 13 10 16 36 68 81 92 90 94 92 97 128 133 145 150 147 140 135 131 126 124 120
183 247 306 301 349 288 280 264 260 258 248 247 200 161 171 181 197 196 195 188 157 213 260 345 13 8 11 10 355 7 6 41 135 129 114 108 107 124 142 154 151 155 155 150 140 134 130 124 121
186 242 286 287 288 288 274 278 259 256 232 224 211 204 195 200 199 196 194 243 240 258 238 263 9 8 10 8 350 342 350 339 149 149 148 133 128 139 145 149 150 151 157 157 150 145 136 128 125
45 346 319 282 257 247 301 292 246 244 213 219 233 223 216 214 196 199 204 219 234 256 231 273 314 5 1 1 346 341 340 330 332 190 168 144 143 145 156 155 154 159 158 150 144 136 130 126 126
33 15 294 279 242 220 175 263 265 236 197 229 243 241 229 234 220 214 211 212 224 239 204 248 332 353 343 344 343 340 331 321 321 268 194 177 175 174 161 168 173 168 161 146 147 149 146 146 144
31 265 260 283 258 233 201 253 270 254 213 235 243 242 229 232 246 230 222 208 223 215 187 198 312 338 322 330 340 333 332 329 314 310 256 209 194 187 180 179 176 164 154 155 163 163 158 156 150
234 245 263 265 274 263 249 260 273 265 232 241 244 242 228 222 236 236 223 215 233 203 182 186 236 309 323 331 353 346 340 336 328 318 270 240 215 197 185 184 185 166 160 170 169 171 165 162 156
217 232 262 269 285 280 262 269 274 270 250 248 251 244 229 232 238 229 211 222 211 185 186 196 227 285 302 292 318 302 284 287 294 312 274 241 228 211 195 200 192 174 177 181 175 174 167 168 149
249 251 267 287 303 289 277 275 269 258 242 236 237 236 223 233 247 241 229 232 197 194 203 215 217 258 262 244 240 257 257 245 267 315 320 272 238 225 206 192 197 186 178 181 181 174 176 178 170
265 233 253 274 308 308 301 293 267 248 239 256 259 245 221 219 230 241 250 222 201 203 210 230 234 246 249 254 233 305 286 290 310 303 295 314 271 225 216 200 198 192 186 192 195 186 180 182 188
251 249 266 281 309 293 334 290 281 267 303 300 307 317 279 273 229 236 232 225 226 223 221 222 230 245 237 226 198 226 243 249 261 271 274 299 299 244 220 212 206 204 194 192 200 196 191 182 187
239 289 285 269 248 287 269 229 283 303 286 287 293 296 294 290 204 194 203 236 269 276 251 236 237 248 235 225 209 221 257 260 267 279 277 282 303 282 238 215 209 212 205 197 198 195 193 190 192
275 351 356 24 80 270 227 195 279 261 257 279 292 303 303 329 298 243 266 300 315 318 297 273 262 259 243 233 223 220 246 251 260 274 265 270 285 295 278 239 216 211 213 204 203 199 197 194 193
44 66 11 347 332 253 206 208 251 273 294 272 274 289 299 315 303 318 330 326 313 309 298 275 275 268 247 237 235 228 237 231 227 237 242 252 264 281 271 265 238 222 215 210 203 198 199 193 192
208 146 168 229 251 282 289 235 248 296 324 346 344 312 329 328 334 312 292 297 294 290 290 287 279 274 264 247 248 240 240 230 233 238 239 239 246 254 262 263 244 235 218 210 199 202 203 194 194
150 192 180 160 268 278 272 286 298 333 352 360 351 347 331 322 319 311 299 301 293 291 290 283 286 276 273 268 253 250 241 235 242 246 243 239 247 256 257 253 245 231 219 208 200 203 199 192 199
158 156 110 143 211 265 284 269 260 296 309 325 324 323 321 325 325 325 318 302 295 294 298 293 284 268 267 266 263 259 241 239 238 243 249 246 247 252 247 246 243 228 221 209 201 203 199 194 200
147 145 155 175 195 206 269 273 230 231 250 282 297 311 314 315 318 323 321 309 301 309 311 311 298 286 280 273 270 267 253 246 243 244 245 241 247 247 243 242 240 232 224 213 204 202 198 199 202
183 185 163 189 245 214 230 268 270 246 267 296 305 313 316 320 327 326 325 326 319 318 316 313 306 283 274 269 267 267 265 254 248 249 247 243 242 243 243 241 239 237 228 217 208 206 207 204 204
Height
1513 1513 1514 1516 1521 1534 1536 1529 1525 1523 1522 1522 1521 1521 1523 1526 1530 1536 1533 1531 1531 1532 1533 1534 1535 1536 1536 1537 1537 1538 1539 1539 1540 1540 1541 1541 1542 1543 1544 1544 1544 1545 1545 1546 1546 1547 1547 1547 1548
1512 1513 1516 1516 1528 1540 1536 1528 1525 1523 1522 1521 1521 1522 1523 1526 1528 1530 1529 1530 1531 1532 1533 1533 1534 1535 1536 1536 1537 1538 1539 1539 1540 1540 1541 1541 1542 1543 1544 1544 1545 1546 1546 1547 1547 1548 1548 1548 1549
1513 1514 1516 1520 1532 1535 1530 1525 1524 1522 1521 1521 1522 1524 1526 1528 1529 1529 1530 1530 1530 1531 1532 1533 1534 1534 1535 1536 1537 1538 1539 1539 1540 1540 1541 1541 1542 1543 1544 1545 1545 1546 1547 1547 1548 1548 1549 1549 1550
1513 1515 1517 1526 1530 1528 1525 1523 1522 1522 1521 1522 1523 1526 1528 1531 1530 1530 1529 1529 1530 1531 1531 1532 1533 1534 1534 1535 1536 1537 1538 1539 1539 1540 1541 1541 1542 1543 1544 1545 1546 1546 1547 1548 1548 1549 1550 1550 1551
1513 1515 1524 1532 1529 1526 1524 1522 1522 1522 1523 1524 1524 1527 1528 1530 1530 1529 1529 1529 1529 1530 1531 1531 1532 1533 1534 1535 1535 1536 1537 1538 1539 1540 1540 1541 1542 1543 1544 1545 1545 1546 1547 1548 1549 1549 1550 1551 1551
1514 1516 1530 1533 1528 1525 1524 1523 1523 1523 1524 1524 1525 1527 1529 1530 1528 1529 1529 1528 1529 1529 1530 1530 1531 1531 1532 1533 1535 1535 1536 1537 1538 1539 1539 1540 1541 1542 1543 1544 1545 1546 1547 1548 1549 1550 1550 1551 1551
1515 1521 1528 1529 1528 1526 1524 1523 1524 1524 1524 1525 1525 1526 1527 1528 1528 1528 1528 1528 1528 1529 1529 1529 1530 1531 1531 1532 1533 1534 1535 1536 1537 1538 1538 1539 1540 1541 1542 1543 1544 1545 1546 1547 1548 1549 1550 1551 1552
1514 1520 1526 1528 1527 1525 1523 1523 1524 1524 1524 1525 1525 1526 1526 1527 1527 1527 1527 1528 1527 1527 1528 1528 1529 1529 1530 1531 1531 1533 1533 1534 1535 1536 1537 1538 1539 1540 1541 1542 1543 1545 1546 1547 1548 1549 1550 1551 1551
1515 1525 1528 1526 1524 1524 1522 1523 1524 1524 1524 1524 1524 1525 1525 1525 1525 1525 1525 1526 1526 1526 1526 1526 1527 1527 1528 1529 1530 1531 1532 1533 1534 1535 1536 1537 1537 1538 1540 1541 1542 1543 1545 1546 1547 1548 1549 1550 1551
1516 1526 1524 1522 1521 1522 1522 1523 1523 1523 1523 1523 1523 1523 1523 1523 1523 1522 1522 1523 1523 1523 1524 1525 1525 1525 1526 1527 1528 1529 1530 1531 1532 1532 1534 1535 1536 1537 1538 1539 1541 1542 1544 1545 1546 1547 1549 1550 1551
1517 1522 1521 1521 1521 1521 1522 1522 1522 1522 1522 1521 1520 1520 1521 1521 1521 1520 1521 1521 1521 1522 1522 1523 1523 1524 1524 1525 1526 1527 1528 1529 1530 1531 1532 1533 1534 1535 1536 1537 1539 1541 1542 1543 1545 1546 1547 1549 1550
1519 1520 1520 1520 1520 1521 1521 1521 1521 1520 1519 1519 1519 1518 1519 1519 1519 1519 1519 1519 1520 1520 1521 1521 1521 1522 1522 1523 1524 1525 1525 1526 1527 1529 1530 1531 1532 1533 1534 1535 1537 1539 1540 1542 1543 1545 1546 1548 1549
1520 1520 1520 1520 1520 1520 1520 1519 1519 1517 1517 1517 1517 1517 1516 1516 1517 1517 1518 1517 1518 1518 1518 1519 1519 1520 1520 1521 1522 1522 1523 1524 1525 1526 1527 1528 1530 1531 1532 1533 1535 1537 1538 1540 1542 1543 1545 1546 1548
1519 1520 1520 1520 1519 1519 1519 1517 1518 1513 1514 1514 1514 1514 1514 1514 1514 1515 1515 1514 1515 1515 1516 1516 1517 1517 1518 1518 1519 1520 1520 1521 1522 1523 1525 1526 1527 1528 1530 1531 1533 1534 1536 1538 1540 1541 1543 1545 1546
1520 1521 1520 1518 1518 1518 1518 1517 1514 1511 1512 1512 1512 1512 1512 1512 1512 1512 1512 1512 1512 1513 1514 1513 1514 1515 1515 1516 1516 1517 1518 1518 1519 1521 1522 1523 1525 1526 1527 1529 1530 1532 1534 1536 1538 1540 1541 1543 1545
1521 1523 1523 1518 1517 1516 1520 1516 1510 1510 1510 1509 1509 1509 1509 1509 1509 1509 1510 1509 1510 1510 1511 1511 1511 1512 1513 1513 1513 1514 1515 1516 1516 1518 1519 1520 1522 1523 1524 1526 1528 1530 1531 1533 1535 1537 1539 1541 1542
1525 1527 1523 1519 1516 1516 1517 1514 1507 1507 1507 1506 1506 1506 1506 1506 1506 1506 1507 1507 1507 1508 1508 1508 1508 1509 1510 1510 1511 1511 1512 1513 1514 1515 1516 1517 1519 1520 1521 1523 1525 1527 1528 1530 1532 1535 1536 1538 1540
1526 1526 1522 1519 1516 1516 1516 1512 1505 1505 1505 1503 1503 1503 1502 1502 1502 1503 1504 1505 1505 1506 1506 1505 1506 1506 1507 1507 1508 1508 1509 1510 1510 1511 1513 1514 1515 1517 1518 1520 1522 1523 1525 1527 1529 1531 1533 1536 1538
1522 1522 1522 1518 1515 1515 1513 1509 1503 1501 1501 1500 1499 1498 1499 1499 1499 1500 1500 1502 1502 1502 1503 1502 1502 1503 1503 1503 1503 1504 1504 1505 1506 1507 1508 1510 1511 1513 1515 1516 1518 1520 1522 1524 1525 1528 1530 1532 1535
1521 1521 1521 1517 1514 1513 1511 1506 1499 1497 1497 1496 1496 1495 1495 1495 1496 1496 1497 1498 1498 1499 1499 1499 1499 1500 1500 1501 1501 1501 1501 1502 1503 1504 1505 1506 1507 1509 1510 1512 1514 1516 1518 1520 1522 1524 1526 1529 1531
1521 1522 1520 1519 1516 1512 1512 1504 1497 1494 1494 1493 1493 1493 1492 1492 1492 1492 1492 1494 1495 1495 1495 1496 1496 1497 1498 1498 1498 1498 1498 1498 1499 1500 1500 1502 1503 1504 1506 1508 1510 1512 1514 1516 1518 1520 1522 1524 1528
1520 1519 1518 1517 1520 1519 1515 1513 1497 1494 1493 1492 1492 1491 1490 1490 1489 1489 1490 1490 1491 1492 1492 1493 1493 1494 1494 1494 1494 1494 1493 1492 1494 1495 1496 1497 1499 1500 1502 1503 1506 1508 1510 1512 1514 1516 1518 1521 1523
1520 1518 1518 1518 1520 1523 1518 1517 1501 1495 1494 1492 1491 1490 1489 1488 1487 1487 1488 1488 1488 1489 1489 1489 1490 1490 1490 1490 1490 1490 1490 1490 1491 1491 1492 1493 1494 1496 1498 1500 1502 1504 1505 1507 1510 1512 1514 1516 1519
1519 1519 1519 1520 1523 1521 1514 1516 1503 1498 1495 1492 1491 1490 1488 1487 1487 1487 1487 1487 1486 1486 1486 1486 1486 1486 1486 1486 1487 1487 1486 1486 1487 1487 1488 1488 1489 1491 1493 1496 1498 1499 1501 1502 1505 1507 1509 1512 1514
1521 1525 1528 1524 1525 1517 1510 1511 1504 1496 1493 1491 1490 1489 1488 1487 1486 1485 1485 1484 1484 1483 1483 1482 1482 1482 1482 1483 1483 1483 1483 1483 1483 1483 1484 1484 1485 1486 1489 1491 1493 1494 1496 1498 1500 1502 1504 1507 1509
1524 1525 1528 1526 1523 1516 1510 1509 1501 1495 1493 1490 1489 1488 1487 1486 1485 1484 1484 1483 1482 1481 1480 1479 1478 1478 1478 1478 1479 1479 1480 1480 1480 1480 1480 1480 1481 1482 1484 1486 1487 1489 1491 1493 1495 1497 1500 1502 1504
1523 1526 1525 1530 1529 1527 1515 1510 1499 1493 1492 1490 1489 1487 1485 1484 1484 1483 1482 1480 1479 1478 1477 1476 1475 1474 1474 1474 1475 1475 1475 1475 1475 1476 1476 1477 1477 1478 1479 1481 1482 1484 1486 1487 1489 1491 1494 1497 1499
1522 1524 1530 1529 1526 1520 1515 1511 1504 1496 1493 1491 1489 1487 1485 1484 1482 1480 1480 1478 1477 1476 1474 1472 1471 1471 1470 1470 1470 1470 1470 1471 1471 1471 1472 1472 1473 1473 1474 1475 1477 1479 1481 1483 1484 1486 1489 1491 1494
1524 1525 1526 1528 1526 1523 1519 1507 1496 1494 1492 1491 1489 1487 1485 1484 1481 1479 1477 1476 1474 1472 1470 1469 1468 1466 1466 1466 1466 1466 1466 1466 1466 1466 1467 1467 1468 1468 1469 1470 1472 1473 1475 1477 1478 1480 1483 1485 1488
1522 1523 1526 1526 1525 1525 1522 1509 1492 1491 1490 1490 1489 1487 1485 1483 1480 1478 1475 1473 1471 1469 1468 1466 1465 1464 1463 1463 1462 1461 1461 1461 1461 1461 1462 1462 1463 1464 1464 1466 1467 1468 1469 1471 1473 1475 1477 1479 1482